HST
1 20580U 90037B   24134.59323692  .00008898  00000-0  42526-3 0  9992
2 20580  28.4678 216.8308 0002557  31.1580 328.9163 15.17262657671779
ISS (ZARYA)
1 25544U 98067A   24135.39831887  .00022665  00000-0  38569-3 0  9997
2 25544  51.6380 122.8903 0003403 166.8439 357.4492 15.51308311453304
CXO
1 25867U 99040B   24136.12859698  .00000643  00000-0  00000-0 0  9997
2 25867  40.4499 156.9026 8925978 294.2298 359.7347  0.37810674 14439